Messages
logo

Welcome to Perpetual Archive, a project to automatically archive and share YouTube Channels at maximum quality, as an alternative to incremental torrents.


Site Feedback Survey, Greatly Appreciated

Folder
Up
1 folders, 537 files, 111.0 GBytes
Select

0 items selected

Actions
Get list
Server information Server time: 5/22/2019 6:53:40 AM Server uptime: (75 days) 07:46:45

Have a channel request, link to something I'm missing, or takedown request?


Contact Me Here

Want to donate to the project to help buy more storage or pay for power?


BTC:

1Gm74eQn7yeqJsyHS6fuM1gizjgsyPhAqY

BCH:

1NSkY7dRkqsyTS8isWa1Q7cXERHFJgy7Rn

LTC:

LSFFFrq4FDXy7Sbjeq1gxnuq686HKdJMa4

Name⇓.extension Size Timestamp Hits
Subtitles and Descriptions folder4/18/2019 8:03:35 AM6985
20120401 - How to run industrial 3 phase motor on single phase.mkv 32.7 MB5/28/2015 3:25:30 AM33
20130608 - Poorman's Rock Crusher and Gold Recovery.mkv 88.8 MB10/27/2018 11:22:24 PM14
20130812 - Destroyed VFD teardown and failure analysis.mkv 46.5 MB3/10/2015 5:33:15 AM13
20130830 - Machining 101 - How to drill a square hole at home without special tools..mkv 22.2 MB6/2/2018 8:35:58 PM10
20131010 - Poorman's Milling Machine!.mkv 23.5 MB6/10/2017 9:20:01 PM10
20131028 - What's the clamping force of a vise Hack a hydraulic cylinder to find out!.mkv 39.9 MB2/10/2014 1:27:49 AM17
20131201 - Brushless Motors explained in layman's terms (by a Star Wars dork) - New Dewalt Milwaukee Makita.mkv 72.6 MB11/15/2018 4:51:17 PM10
20140111 - How to drill steel with Arduino and a pencil!.mkv 36.8 MB5/30/2015 4:23:31 AM12
20140202 - How to build a 100 ton Press for machining, broaching, punching and forming.mkv 285.4 MB10/31/2018 1:37:56 AM9
20140224 - Weirdest drill bit you've never seen. How to get the tungsten carbide out.mkv 56.9 MB3/1/2014 4:18:49 AM16
20140309 - How to turn tool steel in a lathe.mkv 242.8 MB6/11/2017 5:29:06 PM8
20140314 - Structural Failure! Home made press.mkv 113.1 MB7/30/2015 8:39:05 AM9
20140319 - REMATCH - 100 ton-ish press versus one point five inch punch.mkv 52.8 MB3/14/2016 2:43:40 AM9
20140507 - Garbage!_ Multitool review and teardown.mkv 142.8 MB10/28/2018 5:02:06 PM7
20140521 - How to Drill Square Holes!.mkv 186.1 MB5/28/2017 11:52:15 AM10
20140606 - 100 year old blacksmith anvil gets a new home.mkv 204.4 MB6/23/2018 4:00:22 PM9
20140612 - How to recover tungsten carbide from drill bits.mkv 241.4 MB10/26/2017 6:43:38 AM6
20140619 - Ultra Performance GOLD machinist oil can.mkv 337.7 MB5/31/2015 10:00:26 AM10
20140728 - HSS Flow Drilling and Friction Welding.mkv 162.4 MB7/26/2015 1:06:44 AM8
20140820 - Stihl FS 38, GOOD from far, but far from GOOD.mkv 125.2 MB5/17/2015 7:23:00 AM9
20140829 - How to make a cheap tumbler.mkv 35.5 MB7/13/2015 8:25:26 AM13
20140906 - Titanium Casting Experiment.mkv 134.2 MB10/27/2018 11:13:51 PM9
20140915 - $200 Axe. Wetterlings Sweden Bushman by Survivorman Les Shroud.mkv 340.1 MB10/29/2018 2:22:12 AM10
20141024 - Hydraulic Gerotor Motor Teardown.mkv 109.4 MB8/16/2015 4:51:27 AM7
20141101 - Dewalt Tool Repair with Industrial Rubber.mkv 254.7 MB10/31/2018 3:55:28 AM10
20141125 - How to make a Steel Burnishing Tool.mkv 47.5 MB4/24/2015 1:17:48 AM11
20141219 - Copper Workbench.mkv 86.9 MB11/6/2018 5:56:44 PM9
20150102 - Bored of lame tool reviews Meet Makita's new Hypoid Saw..mkv 299.5 MB9/22/2018 5:49:59 AM8
20150109 - Manly-Man Skills - Open a can with a knife.mkv 35.5 MB1/12/2015 1:53:01 AM28
20150111 - Bored of lame tool reviews Meet DeWalt's 12 Amp Grinder part A.mkv 275.9 MB6/30/2018 9:41:48 AM9
20150118 - Bored of lame tool reviews Meet DeWalt's grinder guts Part B.mkv 478.8 MB10/31/2018 9:48:41 PM9
20150122 - Manly-Man Skills - Ride the Lightning..mkv 186.1 MB10/28/2018 3:27:16 PM14
20150124 - Bored of lame tool reviews Shake hands with cheap Chinese calipers..mkv 264.0 MB10/29/2018 5:05:51 PM9
20150127 - Copper parts from recycled wire sintering.mkv 70.7 MB9/28/2017 10:32:31 PM10
20150205 - Bored of Lame Tool Reviews Power Fist Saw. Sink your meat hooks into this Offshore Abomination!.mkv 520.6 MB10/24/2017 8:27:10 PM10
20150210 - The Microwave Trick It's the easy way to heat bearings!.mkv 64.0 MB10/28/2018 8:31:23 PM12
20150214 - BOLTR - Power-Fist Air Die Grinder..mkv 479.2 MB10/28/2017 5:07:16 AM10
20150222 - Manly-Man Skills - Make a charger from a PENCIL!.mkv 101.5 MB10/20/2017 6:30:53 AM13
20150301 - Motor Balancing and Vibration Analysis with a Headphone Speaker.mkv 239.3 MB3/11/2015 7:50:36 AM12
20150308 - Making holes in Armor Plate. Cheap twist drill vs. good twist drill.mkv 287.6 MB10/26/2018 7:29:45 PM10
20150311 - Drill speed holes in a rusty old Bastard file.mkv 51.9 MB9/13/2015 11:29:32 PM11
20150315 - Manly-man skills - Remove a broken tap the hard way..mkv 254.9 MB9/28/2018 7:13:24 AM8
20150321 - BOLTR - La BOMBA! Red Lion water chooch'r is engineered to FAIL!.mkv 258.5 MB10/21/2018 6:15:31 AM9
20150325 - Using Silicon Carbide to cut glass.mkv 125.2 MB3/25/2015 10:35:45 PM11
20150329 - Manly-Man Skills - The dreaded IKEA shopping trip.mkv 97.1 MB3/30/2015 12:15:53 AM11
20150330 - How good is a 'Lifetime Guarantee'.mkv 135.8 MB3/31/2015 7:53:15 AM12
20150401 - Frequently Arsed Questions.mkv 190.7 MB10/27/2018 11:51:06 PM19
20150404 - BOLTR - Ikea SDS Hammer Drill Gut Check Part A.mkv 486.1 MB10/22/2018 8:45:17 PM7
20150423 - Stinky old screwdrivers make your tongue numb!.mkv 101.2 MB4/29/2015 2:17:29 AM8
20150425 - BOLTR - Cuisinart Mixer teardown and repair.mkv 224.2 MB5/28/2018 4:37:03 AM8
20150429 - Manly-Man Skills - Outsmart Mechanic Scams by Using Your Car's Computer!.mkv 168.4 MB10/29/2018 1:31:15 AM6
20150506 - Worn out Carbide cutting Aluminum under the microscope.mkv 122.9 MB5/6/2015 4:43:37 PM9
20150516 - BOLTR - Does HILTI hold up to the hype SDS Rotary Hammer..mkv 274.8 MB9/17/2018 10:04:50 PM8
20150521 - Frictionless Bearings - Technical Secrets Explained!.mkv 108.4 MB5/21/2015 10:59:08 PM8
20150524 - Turning Tapered Threads - Manual CNC.mkv 220.9 MB10/21/2018 12:57:52 AM7
20150606 - BOLTR - Hilti Hammer Drill Part B.mkv 423.8 MB5/23/2018 3:58:03 AM6
20150608 - Manly-Man Skills - Sharpen and Balance Blades in 2 minutes.mkv 54.8 MB6/8/2015 3:26:23 PM14
20150610 - 3D printer EDM head for Machining Metal!.mkv 123.3 MB6/10/2015 3:48:31 PM9
20150612 - Salvaged Tungsten Shotgun Round.mkv 72.8 MB6/12/2015 1:01:32 PM9
20150615 - Diamond vs. Tungsten Carbide - Homemade stir welding tool..mkv 238.3 MB6/15/2015 12:48:20 AM9
20150617 - Manly-Man Skills - Making Sure your Pressure Washer is Ready for Lending.mkv 73.6 MB6/17/2015 3:24:06 PM10
20150621 - BOLTR - Helac Rotary Actuator.mkv 204.3 MB10/23/2018 3:37:12 AM6
20150624 - Magnetic Saw Guide for WOOD! Graphite! Waffles!.mkv 189.1 MB6/25/2015 12:40:24 AM9
20150628 - A trick for hard to reach fasteners; diy socket light.mkv 56.9 MB6/29/2015 12:44:53 AM8
20150630 - Friction Stir Welding on a Bridgeport Mill.mkv 139.1 MB10/30/2018 10:36:22 PM7
20150705 - Zen Blaster; a Most Annoying DIY Electronic Device.mkv 299.3 MB12/19/2018 7:57:01 PM8
20150707 - BOLTR - $33 Mitutoyo Calipers, too good to be true.mkv 181.6 MB10/20/2018 8:04:29 PM8
20150709 - Is DeWalt 20V more powerful than Milwaukee 18V Don't toss out your 18V tools just yet..mkv 38.0 MB7/9/2015 11:49:17 PM10
20150711 - BOLTR - Made in USA, DeWalt 20V MAX Hammer Drill. Mechanical Part A..mkv 240.0 MB6/16/2018 5:59:51 PM8
20150719 - BOLTR - DeWalt Hammer Drill. Test, tune and Electrical.mkv 437.1 MB10/30/2018 6:16:43 PM7
20150722 - Survival Stick Welder from Lithium Ion Battery..mkv 104.1 MB7/20/2015 12:56:49 PM11
20150724 - Manly-Man Skills - Sewing and How to Avoid it..mkv 41.2 MB7/21/2015 10:22:17 PM13
20150726 - Cordless Drill Haunted by the Ghost of Dorks Past..mkv 124.9 MB10/27/2018 5:49:35 PM7
20150729 - Knock-off Ray Ban Sunglasses vs. UV laser.mkv 101.2 MB7/26/2015 6:21:23 PM9
20150731 - Beer Cooler Prank. SCIENCE!.mkv 51.9 MB7/31/2015 11:00:47 PM12
20150805 - Mix your own KINETIC SAND for CHEAP!.mkv 45.6 MB8/3/2015 2:39:13 PM9
20150807 - Building a Power Tool Watt Meter and Behind the Scenes Schtuff.mkv 261.9 MB8/4/2015 12:16:44 AM11
20150808 - BOLTR - Drill Doctor.mkv 124.2 MB8/10/2018 12:43:53 AM7
20150810 - Sharpen Drill Bits WITHOUT a Drill Doctor!.mkv 129.1 MB8/10/2015 4:59:47 PM7
20150814 - Simple Homebrew Magnetic Silly Putty (the REAL stuff)..mkv 67.6 MB8/13/2015 12:50:10 PM8
20150822 - BOLTR - Festool Track Saw TS 55.mkv 347.3 MB9/16/2018 2:23:15 AM7
20150828 - Poorman's CNC and DRO!.mkv 56.9 MB11/6/2018 8:19:25 AM7
20150830 - BOLTR - Festool TS55 Teardown Test.mkv 282.5 MB7/9/2018 1:49:08 PM7
20150905 - BOLTR - Fein Grinder.mkv 433.5 MB10/30/2018 2:21:26 PM7
20150913 - DRINKO! Not affiliated with PLINKO!.mkv 314.3 MB9/14/2015 12:27:05 AM9
20150923 - Easy Warranty Void sticker removal with DIY Teflon knife..mkv 145.8 MB8/24/2018 11:19:46 PM6
20150924 - Tool Bullshit o Meter Build TRAILER..mkv 16.9 MB9/24/2015 9:45:57 PM9
20150926 - Testing LED bulbs for bad vibrations. Yep..mkv 164.5 MB9/26/2015 6:28:08 PM10
20150929 - BOLTR - Cree Bulb. The guts and redux..mkv 97.0 MB11/10/2018 11:07:01 PM8
20151002 - How to move heavy iron SOLO. Cheap, Dirty and Downright Dangerous..mkv 89.0 MB10/30/2018 9:13:49 PM8
20151004 - BOLTR - Fein Grinder Blueing the gears and testing the electrics!.mkv 260.4 MB10/26/2018 11:52:12 PM7
20151006 - 6 bargains from the dollar store for the shop..mkv 94.8 MB10/1/2015 11:10:28 PM8
20151007 - Quick and Easy Dollar Store Electronics Hack - Cube Farm Holiday Sunshine.mkv 51.8 MB10/1/2015 11:14:15 PM8
20151011 - BOLTR - Blendtec it blends, but will it chooch.mkv 431.2 MB5/11/2018 6:19:46 AM7
20151014 - Simple DIY Sprinkler Winterizing. Now 100% ARDUINO FREE!.mkv 343.1 MB10/7/2015 1:30:41 PM10
20151016 - Simple and Easy Broken Tap Extraction Nitric Acid vs. Alum.mkv 130.4 MB10/5/2015 2:52:53 PM8
20151017 - Codename - Midnight Sun. (High Power Evaporative Cooled Retina Blaster).mkv 50.3 MB10/15/2015 3:24:57 PM9
20151020 - Manly-Man Skill - Repair Stripped Threads with Nothing but a Bolt, a Wire and a Flat Bastard.mkv 122.7 MB8/26/2018 3:50:53 AM9
20151021 - Destructive Hydraulic Testing of Homemade Oil Plug..mkv 127.3 MB10/21/2015 8:49:36 PM7
20151022 - Destructive Test of 200 PSI Hydraulic Gauge.mkv 54.2 MB10/22/2015 5:43:37 PM7
20151027 - 3 Simple Rules to troubleshooting ANYTHING..mkv 101.5 MB11/1/2018 6:42:03 PM12
20151101 - BOLTR - Blendtec Will it Blend Gold Ore.mkv 324.5 MB11/6/2018 10:24:56 PM7
20151106 - BOLTR - Youtube Silver Playbutton.mkv 230.0 MB10/24/2018 8:50:42 PM10
20151110 - $1000 (!) Nemo Underwater Drill.mkv 27.7 MB11/12/2015 1:28:36 AM8
20151120 - Teaser - Midnight Sun Flashlight..mkv 48.5 MB11/24/2015 7:47:01 AM8
20151125 - Get a million subscribers FAST!.mkv 84.0 MB11/3/2018 6:06:27 PM10
20151202 - How an oil slick pad works.mkv 71.1 MB11/29/2015 12:16:52 AM7
20151212 - BOLTR - Anti-Shoplifting Cable Lock.mkv 189.7 MB10/28/2018 12:10:15 PM7
20151216 - Easy and Simple way to make Triangular Holes with a Drill.mkv 238.9 MB10/27/2018 5:33:34 AM7
20151219 - BOLTR - Robot Hydraulic Flow Sensor..mkv 424.6 MB11/2/2018 5:14:23 AM7
20160102 - Homemade Bullet Proof Glass.mkv 159.1 MB9/24/2018 7:15:39 AM7
20160109 - How to Water Proof your Cordless Tools. Almost. SALT WATER TEST..mkv 99.5 MB1/8/2016 3:23:23 PM7
20160117 - BOLTR - Dremel Rotary Tool.mkv 126.5 MB1/16/2016 7:26:30 PM11
20160205 - Dremel Boner and Blackmail response..mkv 87.3 MB2/5/2016 8:24:38 PM9
20160207 - BOLTR - Ryobi Nail Gun 18V cordless.mkv 469.2 MB10/29/2018 11:25:55 PM7
20160209 - Talking 'ANY' key for Problem Customers.mkv 131.5 MB2/9/2016 5:02:42 PM6
20160212 - BOLTR - Emergency Personal Locator Beacon.mkv 198.2 MB10/28/2018 12:20:21 AM7
20160217 - You asked for it! Patron's Request - Dremel Suck Tool on 100PSI air.mkv 68.4 MB2/9/2016 10:44:26 PM10
20160221 - Twenty Buck Grease Gun hydraulic pump. Tested to 1700 PSI! Simple and Easy! Etc..mkv 146.5 MB10/24/2018 8:16:49 PM7
20160224 - Dirt Cheap Check Valve for Hydraulic Emergencies and Tinkering!.mkv 180.2 MB10/26/2018 11:08:11 PM7
20160228 - BOLTR - Disposable Automatic Industrial Bearing Lubricator..mkv 138.9 MB10/29/2018 10:13:38 PM7
20160302 - What's in a hydraulic cylinder What's the simplest way to troubleshoot.mkv 205.6 MB3/3/2016 4:26:39 AM9
20160306 - BOLTR - Ryobi Nail Gun 'Lectrics.mkv 160.3 MB11/9/2018 8:33:27 AM7
20160309 - The worst job ever. How to remove tile thin set from plywood..mkv 129.0 MB10/28/2018 2:10:16 PM7
20160320 - BOLTR - Lincoln Industrial Fluid Transfer Pump..mkv 109.8 MB3/2/2016 2:35:03 PM8
20160323 - The Impossible done on a milling machine.mkv 195.7 MB10/26/2018 3:45:13 PM7
20160326 - BOLTR - Air Impact Gun.mkv 99.7 MB11/4/2018 5:03:14 AM7
20160330 - BOLTR - Born in the USA Oddware.mkv 61.5 MB12/19/2018 3:52:28 PM7
20160402 - BOLTR - Ridgid Hydraulic (!) Impact Gun.mkv 283.5 MB10/2/2018 9:49:17 PM7
20160406 - The Trouble with Troubleshooting Tools..mkv 175.9 MB10/30/2018 9:34:55 PM9
20160410 - BOLTR - Lost wires Find 'em with Klein Tools Tone Tracer.mkv 106.7 MB4/7/2016 3:23:51 PM8
20160413 - Why Paper EXPLODES in a Press! Prince Rupert's Drop, Tungsten Carbide and more!.mkv 196.0 MB11/2/2018 8:27:51 PM9
20160416 - Manly-Man Skills - Beer Stein from old Oil Filter.mkv 44.6 MB4/5/2016 1:33:15 AM7
20160423 - PSSST! You want to buy a CNC Lathe Have I got a deal for you!.mkv 267.4 MB10/25/2018 10:22:23 PM7
20160430 - Surprisingly Easy Way to Cast Aluminum.mkv 124.2 MB10/26/2018 6:13:09 PM6
20160504 - WHY do charcoal briquettes leave so much ash Because MONEY!.mkv 130.7 MB4/27/2016 4:29:30 PM7
20160507 - BOLTR - Inverter VFDs explained, teardown and test.mkv 315.5 MB4/27/2016 5:41:01 PM7
20160508 - LEGO (the real stuff) in a hydraulic press. TL;DW - Yes, Lego will support a car..mkv 71.6 MB5/11/2016 8:10:58 PM7
20160511 - Jacob's ladder with 9V Batteries.mkv 57.3 MB5/2/2016 5:42:15 PM8
20160515 - Beer Bottle Opener - Easy and Simple 5 minute Aluminum Casting.mkv 252.4 MB4/27/2016 2:14:10 PM7
20160522 - BOLTR - Fit's in your glovebox! Kito Baby Sized Chain Hoist..mkv 328.1 MB4/27/2018 12:58:09 AM7
20160527 - How to fix fancy electronics in newer tools..mkv 156.3 MB5/30/2016 3:13:28 PM6
20160528 - BOLTR - Router Speed Controller.mkv 243.5 MB5/28/2016 9:24:06 PM7
20160601 - Old farmer's trick to fix a loose handle..mkv 36.9 MB6/1/2016 3:41:01 AM6
20160606 - Mo' Powah from your impact gun..mkv 49.4 MB4/20/2017 7:15:27 PM7
20160608 - Kanuckistan Mint Presents - Coins for a Sovereign Workshop..mkv 43.5 MB6/4/2016 1:17:37 AM9
20160612 - New Lithium for Old Tools!.mkv 147.7 MB11/1/2018 8:32:18 AM8
20160617 - Old Mechanic's Trick - Freeze-Shrink Metal Parts WITHOUT Nitrogen..mkv 47.5 MB6/17/2016 2:28:39 PM6
20160621 - Making Prototypes - Venturi from Napkin Drawings..mkv 298.2 MB6/26/2018 12:48:39 PM8
20160622 - Simple and dirt cheap Spot Welder for lithium cells. Now, 100% MOT FREE!.mkv 43.0 MB6/22/2016 9:36:35 PM7
20160625 - BOLTR - Uni-T Decibell Sound Meter.mkv 212.4 MB6/22/2016 4:49:15 PM8
20160625 - How loud is a dry cut saw Grinder Impact Gun Compressor.mkv 105.3 MB6/22/2016 5:09:21 PM7
20160703 - BOLTR - Stone Age Radio Voice Based Interwebs for Frozen Third World Sit-Holes..mkv 261.6 MB10/22/2018 7:01:02 PM7
20160706 - BEHOLD! The TEN BUCK Boroscope!.mkv 39.0 MB6/30/2016 1:32:16 AM8
20160710 - How to MAYBE extract broken bolts..mkv 175.1 MB11/7/2018 12:26:34 AM7
20160713 - How a dim bulb fixes a bright LED.mkv 83.2 MB6/28/2016 5:50:52 PM10
20160715 - Costco batteries are better than Duracell or Energizer!.mkv 61.7 MB7/12/2016 1:45:26 AM7
20160717 - BOLTR - CANbus accelerator pedal..mkv 183.0 MB6/30/2016 12:14:36 AM8
20160717 - Carbon Foam - an incredible material made from everyday items..mkv 133.7 MB10/27/2018 6:57:22 PM7
20160723 - Easiest Way to Cast Aluminum Without a Foundry Many fcuks given..mkv 163.2 MB7/20/2016 6:20:46 AM9
20160723 - Third Time's the Charm! Aluminum Casting..mkv 28.3 MB7/23/2016 2:52:27 PM7
20160724 - BOLTR - 2 Stroke Engine..mkv 274.3 MB5/16/2018 9:49:17 PM8
20160725 - The NO-FOUNDRY Aluminum Foundry!.mkv 53.9 MB7/20/2016 6:40:17 AM7
20160730 - BOLTR - UNI-T Clamp-On Multimeter.mkv 333.8 MB11/15/2018 5:56:20 AM8
20160806 - Exploding Lithium Battery.mkv 73.3 MB11/3/2018 1:15:55 AM7
20160810 - Tips from Your Weird Uncle..mkv 55.6 MB10/28/2018 8:07:31 AM15
20160823 - BOLTR - Nifty Drill from the Fifties!.mkv 312.5 MB11/15/2018 9:32:10 PM7
20160827 - BOLTR - US built Makita 5 inch angle grinder.mkv 337.8 MB7/28/2018 8:25:57 AM6
20160901 - Electronics for Gearheads and one Welder..mkv 170.3 MB8/30/2016 2:12:49 AM8
20160903 - BOLTR - Milwaukee Dremel.mkv 258.7 MB6/21/2018 5:14:35 AM7
20160910 - One Rule to Ruler them all - State of the Republic Address..mkv 172.2 MB9/9/2016 8:25:48 PM7
20160911 - BOLTR - Harbor Freight Grinder. HOW BAD IS IT.mkv 317.3 MB6/17/2018 2:33:27 AM7
20160914 - Plug-in Power Tool to CORDLESS CONVERSION..mkv 171.9 MB9/14/2016 11:36:41 PM7
20160916 - Make a 120 Volt BATTERY PACK FOR POWER TOOLS!.mkv 80.7 MB9/17/2016 1:44:50 AM7
20160918 - HYDRAULIC GEAR PUMPS EXPLAINED!.mkv 324.6 MB10/26/2018 5:43:09 AM6
20160923 - 100 HORSEPOWER in your HAND. Hydraulic PISTON PUMP!.mkv 284.5 MB10/22/2018 4:47:15 AM6
20160926 - HOW BUBBLE GUM STOPS HYDRAULIC OIL LEAKS. It's gross, actually..mkv 99.8 MB10/27/2018 4:02:59 PM6
20160928 - WHAT DRILL BIT IS BEST DRILL.mkv 412.0 MB9/18/2018 12:52:12 AM6
20160929 - Drilling and Tapping for German Virgins. _ GUDENTOIGHT! .mkv 250.6 MB11/6/2018 11:46:25 PM6
20161002 - BOLTR - METABO GRINDER. MADE IN GERMANY.mkv 488.6 MB9/27/2018 5:03:37 AM5
20161007 - BOLTR - DYSON HAIR DRYER. Is it WORTH the MONEY.mkv 503.6 MB9/21/2018 11:02:08 PM5
20161010 - AvE Shop Ruler - AKA How to Solder WITHOUT a Sodding Iron!.mkv 136.0 MB10/13/2016 2:34:51 AM6
20161010 - DIRTY TRICK FOR SEIZED BOLTS IN NASTY SPOTS.mkv 62.6 MB12/20/2018 1:11:06 PM5
20161014 - DYSON BLOW DRYER vs. VITAMIX BLENDER; MARITAL AID SHOWDOWN!.mkv 58.1 MB10/16/2016 3:02:50 AM6
20161017 - TEACH YOURSELF MACHiNiNG - Fluid Cavitation Venturi for Practical Engineering.mkv 282.3 MB10/31/2018 8:01:57 PM6
20161021 - BOLTR - Dyson V9 Motor. ALIEN TECHNOLOGY CONFIRMED!.mkv 144.7 MB10/27/2018 6:18:21 PM6
20161025 - BOLTR - DeWalt 60V FlexVolt Lithium Battery. Ooopsie!.mkv 268.5 MB10/26/2018 12:44:18 AM5
20161029 - BOLTR - Milwaukee High Demand 9.0 Red Lithium. FREEZE TEST and REPAIR!.mkv 274.2 MB10/24/2018 10:37:14 PM5
20161101 - ONLY SISSIES WEAR MUFFS! Tested Shop Vac, Circ Saw, Compressor and More!.mkv 152.5 MB11/1/2016 2:08:09 PM6
20161102 - How loud are earbuds How well do earmuffs protect your hearing.mkv 65.1 MB11/2/2016 2:26:45 PM7
20161105 - WELDING - THE BEST WAY TO LEARN!.mkv 265.0 MB9/22/2018 4:40:19 PM6
20161109 - BOLTR - $500 Industrial FLASHLIGHT. WHY SO MUCH.mkv 280.2 MB10/26/2018 4:56:10 AM6
20161112 - BOLTR - KitchenAid Mixer. SURPRISE!.mkv 785.4 MB12/31/2018 8:29:51 PM7
20161114 - Bumblefuck Abroad - Exploring Megalith Magic Circles in a Skoda.mkv 234.8 MB11/14/2016 5:42:10 PM9
20161117 - Sharpen Clippers with Hand Lapping Technique.mkv 79.8 MB11/13/2016 6:25:17 PM6
20161123 - BOLTR - ELECTRIC LINEAR ACTUATOR.mkv 241.7 MB11/6/2018 1:31:36 AM5
20161124 - OLD MECHANIC'S TRICK to keep your HANDS WARM..mkv 68.1 MB11/24/2016 3:12:36 PM7
20161126 - BOLTR - THE BEST TOOL MAKITA EVER MADE!.mkv 185.3 MB9/3/2018 11:31:38 PM6
20161128 - BEST TOOL BATTERY WHY BIG LITHIUM COST YOU LESS!.mkv 173.1 MB11/29/2016 12:52:56 AM6
20161201 - AuB - Youtube Subscriber Glitch, Cards Against Humanity, C_T HAIR Measurement.mkv 193.4 MB12/1/2016 6:50:08 PM9
20161204 - BOLTR - Fein MultiMaster Oscillating Tool.mkv 668.2 MB12/14/2018 8:26:58 AM5
20161206 - NOT So Easy Custom Workshop Stamps..mkv 152.1 MB12/5/2016 11:49:02 PM5
20161209 - BOLTR - Makita Bikini Line Electric Razor.mkv 277.2 MB11/4/2018 9:13:46 AM5
20161214 - Stainless 304 Makes EAZY Christmas Gifts!.mkv 185.5 MB10/19/2018 11:34:44 PM6
20161216 - BEST GAME EVER! ELECTRONic GAME THAT YOU CAN'T BUY..mkv 186.5 MB12/16/2016 5:20:52 PM7
20161222 - ROBO-SHAMBO! Portable Game..mkv 231.2 MB10/30/2018 11:51:10 PM5
20161227 - Weird Metal Trick - Single Point Incremental Forming..mkv 135.0 MB7/25/2018 6:33:48 PM5
20161230 - BOLTR - DeWALT Bluetooth and UPGRADES!.mkv 388.9 MB10/21/2018 8:04:30 PM6
20170102 - Metal Spinning on Engine Lathe..mkv 222.9 MB11/2/2018 9:53:45 AM5
20170105 - COOL SHIT FROM COOL CATS..mkv 206.1 MB11/1/2018 4:43:43 PM6
20170107 - BOLTR - GAUGE BLOCKS.mkv 103.6 MB11/2/2018 6:26:42 PM5
20170114 - Precision Metal Grinder from a DRILL PRESS!.mkv 257.9 MB6/28/2018 12:28:36 AM7
20170116 - Cold Welding of Gold and Stainless Steel in Earth Atmosphere..mkv 140.8 MB10/27/2018 6:47:13 PM5
20170119 - BOLTR - Millwaukee 1_2' Nut Smacker.mkv 351.7 MB10/28/2018 7:58:09 PM5
20170121 - BOLTR - A Drawing ROBOT.mkv 325.5 MB7/13/2018 7:28:35 PM5
20170123 - BOLTR - Knockoff Milwaukee Lithium. Surprizing Clickbait-able Results!.mkv 258.6 MB11/5/2018 3:07:23 AM5
20170126 - Using Friction to Melt Holes in Steel. AKA Flow Drill.mkv 83.3 MB10/25/2018 3:32:05 PM5
20170127 - Friction Drilling with Tungsten Carbide. Your Answers Questioned!.mkv 209.6 MB10/26/2018 9:39:10 PM5
20170128 - Makita Battery Repair. (It's a huge pain in the ass).mkv 96.5 MB1/28/2017 2:30:23 PM5
20170129 - Arduino BIG Stepper Motor control. Rotary Axis for milling machine..mkv 425.3 MB11/1/2018 12:56:26 AM5
20170129 - Simple Arduino Spindexer; build and test..mkv 101.1 MB11/13/2018 10:47:31 PM5
20170131 - BOLTR - Offshore Enerpac Cylinder..mkv 275.1 MB11/29/2018 7:01:09 PM5
20170204 - Cold Weld of Stainless Steel Due to Vibration.mkv 91.0 MB2/4/2017 11:59:45 PM5
20170205 - BOLTR - Air Compressor Explained and Fixed..mkv 371.5 MB2/4/2017 6:25:33 PM6
20170208 - Ask Uncle Bumblefuck! Mistakes Trump Busted Tools YES!!!.mkv 456.2 MB9/2/2018 11:40:47 PM18
20170210 - Simple Gewgaw to Eliminate Grease Stains..mkv 231.9 MB9/20/2018 10:21:57 PM5
20170217 - BOLTR - DREMEL from the 1970's.mkv 246.9 MB9/12/2018 8:21:54 PM5
20170219 - Worklight - copper with some kind of weird purple fiber foam.mkv 255.6 MB10/26/2018 10:22:09 PM6
20170222 - Friction Drilled Bastard File..mkv 22.5 MB2/22/2017 10:59:58 PM5
20170222 - Welding and Drilling Non-Ferrous with Tungsten.mkv 45.3 MB2/23/2017 1:24:37 AM5
20170224 - BOLTR - Hitachi MAGIC WAND modded to USB Power Bank..mkv 256.9 MB10/9/2018 8:12:15 PM5
20170227 - Electric Motor Repair. AKA You gotta know when to call it quits..mkv 107.5 MB8/27/2018 2:52:13 PM6
20170228 - Portable CNC Plasma Prototype.mkv 151.8 MB10/28/2018 6:54:15 PM5
20170301 - Vacuum Base CNC Plasma cutter for Aluminum, Stainless Steel, Non-Magnetic Metal. SPEED EDIT..mkv 11.1 MB3/1/2017 3:17:22 PM8
20170302 - Portable CNC PLASMA for Aluminum w_ Vacuum Base.mkv 124.7 MB10/29/2018 10:46:05 PM6
20170304 - BOLTR - DeWALT 60V Brushless Grinder.mkv 566.8 MB12/27/2018 2:42:05 AM6
20170305 - 'IMPOSSIBLE!' Milling Machine from a Drill Press.mkv 271.7 MB10/29/2018 10:15:28 PM6
20170311 - Advanced Drilling Skill Builder..mkv 538.7 MB1/10/2019 1:55:44 AM5
20170312 - Mucking about off-hours in San Francisco, California..mkv 166.4 MB11/14/2018 1:46:56 AM11
20170315 - BOLTR - Fire Suppression Sprinkler Head.mkv 68.2 MB3/3/2017 6:13:39 PM6
20170317 - Sneaky Remote Activation of Fire Suppression and a Device to prevent same.mkv 117.8 MB10/29/2018 2:53:29 AM6
20170318 - BOLTR - Black & Decker. Old School..mkv 412.6 MB10/31/2018 10:54:20 PM7
20170319 - BOLTR - Panasonic Water Resistant Drill.mkv 385.4 MB10/25/2018 8:51:16 PM5
20170321 - WELDER'S RULER.mkv 74.6 MB3/21/2017 4:40:58 PM6
20170323 - BOLTR - Starrett Tap Wrench.mkv 169.2 MB10/28/2018 9:37:25 PM6
20170326 - RIDGID abrasive cut off saw converted to dry cut. Maybe..mkv 153.1 MB9/26/2018 8:38:41 AM6
20170330 - Air Muscle Flex Joint for Soft Robot..mkv 144.6 MB10/28/2018 10:26:37 PM6
20170402 - BOLTR - Make Cool Stuff and put it on the Internets!.mkv 311.2 MB9/21/2018 12:31:21 AM6
20170408 - BOLTR - Gearboxes. Worm and Wheel Speed Reducer..mkv 417.3 MB10/23/2018 4:53:57 AM6
20170411 - GREASY RAG HACK! Damage-Free Bearing Removal..mkv 158.3 MB10/27/2018 10:41:34 PM6
20170415 - BOLTR - Old School Milwaukee Sawzall.mkv 426.2 MB9/23/2018 7:00:20 AM6
20170417 - Dokumentarfilm für Ihre Conziderazion 2018 Wankbahn Kunst Film Festival. (Film Trailer).mkv 14.2 MB11/23/2016 1:26:38 AM9
20170422 - BOLTR - DeWALT knockoff battery vs. the real deal.mkv 385.4 MB12/22/2018 3:36:18 AM6
20170427 - BOLTR - Vintage Mercury Plumb Bob.mkv 231.9 MB10/11/2017 10:17:37 PM5
20170506 - BOLTR - Chinesium Air Compressor.mkv 262.6 MB10/11/2017 12:44:10 AM6
20170512 - BOLTR - CP Slimpact Gun.mkv 278.6 MB11/13/2017 12:09:23 AM6
20170517 - BOLTR - Mitutoyo Dial Indicator.mkv 241.6 MB10/9/2018 12:51:57 AM6
20170519 - BOLTR - Juicero, Cold Press Juicer for Rich Weirdos.mkv 522.0 MB10/28/2018 2:40:27 AM6
20170523 - BOLTR - OWON B35 Datalogging Multimeter.mkv 440.8 MB12/16/2018 5:33:14 PM8
20170525 - Hacking Juicero's DRM Fruit Bags.mkv 257.4 MB5/29/2018 3:58:51 PM6
20170527 - BOLTR - BEST IN CLASS Makita Brushless Drill.mkv 317.9 MB9/20/2018 7:19:48 AM6
20170603 - BOLTR - Harbor Freight Earthquake XT Impact Wrench.mkv 423.0 MB10/26/2018 7:03:57 PM6
20170606 - Electrowetting Experiments. Penny Pucker over 9000!.mkv 142.0 MB10/14/2017 4:11:54 AM6
20170610 - BOLTR - Skilsaw 77 Magnesium Worm Drive.mkv 467.6 MB9/21/2018 11:48:35 PM6
20170612 - How to use Pressure Transducers for Troubleshooting.mkv 236.1 MB2/15/2018 6:37:26 AM7
20170617 - BOLTR - HILTI Drill.mkv 355.7 MB10/27/2018 4:20:30 PM6
20170621 - 4-20mA Industrial Sensor + Arduino.mkv 160.5 MB2/25/2018 5:28:26 PM7
20170624 - BOLTR - Makita Brushless Impact Driver.mkv 240.9 MB5/11/2018 3:44:10 AM6
20170625 - Screwdrivers is BEST screwdrivers.mkv 279.7 MB1/9/2019 11:36:33 PM6
20170627 - Power Tools working. Filmed with High Speed Camera..mkv 148.0 MB7/15/2017 4:06:22 AM6
20170629 - SUCCESS!! Drill to Mill Conversion..mkv 161.0 MB7/11/2017 2:19:34 AM6
20170701 - BOLTR - WORST IN CLASS IKEA Drill.mkv 153.2 MB8/25/2018 5:51:38 PM6
20170704 - Best Ratchet Brand Build a test device to find out!.mkv 252.9 MB10/27/2018 10:52:51 PM5
20170707 - BOLTR - Snap-On vs. Harbor Freight Impact Wrench.mkv 573.2 MB1/14/2019 9:13:01 AM7
20170711 - BOLTR - OMWRONG Timer Relay.mkv 178.5 MB11/6/2018 3:06:28 PM6
20170715 - BOLTR - PROXXON Carving Tool _ Germany.mkv 258.4 MB11/4/2018 4:48:09 AM6
20170716 - High Speed Prototyping.mkv 163.2 MB11/10/2018 4:59:00 AM6
20170719 - BREAD BOWL METAL FOUNDRY!.mkv 160.3 MB10/28/2018 8:15:08 PM5
20170722 - BOLTR - Milwaukee Tool UPGRADE!.mkv 728.3 MB10/24/2018 10:38:01 PM7
20170727 - BOLTR - GRIPPY OIL & GREASE SCREWDRIVER _ JAPAN.mkv 119.2 MB10/28/2018 11:43:37 PM8
20170729 - BOLTR - CORDLESS HOT GLUE! _ RYOBI.mkv 317.6 MB10/21/2018 12:43:14 AM7
20170801 - Treating Nasty Parasites _ Manly-Man Skills.mkv 163.0 MB8/30/2018 5:54:22 PM9
20170805 - BOLTR - HILTI Compact Driver _ Milwaukee DeathMatch!.mkv 308.7 MB5/10/2018 11:57:46 PM6
20170809 - Rocket Stove Peltier Charger _ Seebeck Generator.mkv 165.2 MB10/30/2018 8:59:12 PM7
20170812 - BOLTR - Pressure Reducing Valve _ Gas Regulator.mkv 235.5 MB8/28/2017 12:43:05 AM7
20170816 - BOLTR - BEAVER FEVER RELIEVER _ Survival Prospecting Hiking.mkv 161.5 MB8/27/2017 12:37:27 AM10
20170817 - BOWRON ADVENTURE! _ THE MOST BEAUTIFUL PLACE ON EARTH..mkv 671.7 MB10/26/2018 6:53:53 PM6
20170821 - HOW TO SURVIVE A SOLAR ECLIPSE! _ BUGOUT GEAR.mkv 54.2 MB8/23/2017 11:54:39 AM6
20170822 - Laser Cubiio DEBUNKED!.mkv 34.7 MB10/31/2018 7:46:24 AM6
20170824 - CHEATER TAP CHART.mkv 48.9 MB8/31/2017 12:52:13 AM6
20170826 - BOLTR - Dirty Secrets of Harbor Freight HERCULES _ Better than DeWALT.mkv 667.7 MB10/26/2018 6:14:36 AM6
20170829 - STEEL - QUENCHING IT HARD! _ Enginerding 101.mkv 130.2 MB8/13/2018 4:49:04 PM6
20170831 - Green Mat Relax-O (shitpost) _ Hercules Autonomous Sensory Meridian Response.mkv 443.0 MB2/3/2018 4:38:13 AM9
20170901 - BOLTR - Biolite Stove _ Camping Gear.mkv 368.3 MB10/25/2018 10:45:52 PM6
20170904 - Biolite Stove Skookumfactin' _ I DID NOT BREAK THE STOVE!.mkv 273.0 MB10/26/2018 6:25:03 PM7
20170906 - BOLTR - YETI TESTED! _ Copper Slug Upgrade.mkv 211.8 MB10/21/2018 7:45:41 PM6
20170908 - BOLTR REDUX - YETI How it works _ Enginerding Stainless Steel.mkv 223.0 MB9/8/2018 2:39:36 PM6
20170909 - BOLTR - Air Hammer _ Ingersoll Rand.mkv 371.0 MB9/17/2018 10:44:03 PM6
20170911 - Stirring up trouble _ Shill Tool Reviews.mkv 176.1 MB11/16/2018 12:31:13 AM10
20170912 - BIG JB-Weld Diamond Coring Bit _ Workshop Fabricobblin' Fun!.mkv 203.7 MB10/27/2018 9:57:12 PM6
20170916 - BOLTR - Hydraulic Torque Wrench.mkv 559.4 MB10/21/2018 1:04:46 AM6
20170920 - Ol' Dirty Bastard Milling _ Tungsten vs. File.mkv 31.4 MB10/22/2017 6:21:59 PM6
20170922 - How Much Torque _ Broaching squares to test RATCHETS!.mkv 150.9 MB10/28/2018 6:55:20 PM7
20170923 - Snap-On vs. Offshore _ SURPRISING RESULTS.mkv 308.0 MB12/29/2018 12:36:20 AM7
20170925 - Winter is Coming..mkv 17.8 MB12/19/2018 10:26:41 AM8
20170927 - Quick Tip for HAND TAPPING _ Perfect Every time.mkv 78.8 MB10/21/2017 6:12:42 AM7
20170929 - Twist, Bore, Tap and Spit Polish _ BIG BRASS NUTS.mkv 40.8 MB10/24/2017 4:13:02 PM6
20170930 - BOLTR - Harbor Freight Earthquake XT _ SKOOKUM!.mkv 644.5 MB1/12/2019 2:26:00 AM6
20171002 - INSTANT 40 HORSEPOWER UPGRADE! _ Brass Badge.mkv 156.0 MB10/23/2017 8:14:29 PM8
20171004 - REDUCE TOOL CHATTER! _ DIY Lathe SSV Electronics..mkv 290.8 MB10/24/2017 4:41:37 PM7
20171006 - MAGIC DUST STEEL HARDENING _ CHERRY RED.mkv 132.7 MB10/31/2018 10:58:20 PM6
20171007 - BOLTR - Rollie _ Fleshlight for Eggs.mkv 185.6 MB10/20/2018 8:01:14 PM6
20171010 - BOLTR - Hakko FX-901 _ AA Battery Soldering Iron.mkv 71.2 MB10/24/2017 3:57:07 PM6
20171011 - BOLTR - Snap-On Mac Husky HF SHOWDOWN _ Torque 'em till they BLOW!.mkv 271.4 MB12/13/2018 5:20:02 PM6
20171014 - BOLTR - Aliexpress vs Omron _ RELAYS EXPLAINED!.mkv 184.6 MB11/18/2018 8:23:45 PM6
20171014 - Good News for Patrons _ F_K Youtube's Censorbot.mkv 102.7 MB10/25/2017 2:01:25 AM9
20171018 - BOLTR - Robot Resolver. (What the hell is a resolver).mkv 281.0 MB6/28/2016 6:28:51 PM6
20171021 - BOLTR - Bosch Mini Chainsaw _ KID SIZED DANGER!.mkv 293.0 MB9/23/2018 9:02:19 PM6
20171022 - RATCHET WRENCH Shootout _ Snap-on Kobalt.mkv 122.7 MB10/22/2017 7:24:15 PM6
20171024 - SIMPLE Relay Oscillator Strobe Light _ Quick & Dirty.mkv 113.3 MB10/26/2017 12:58:44 AM6
20171026 - Magnetic Trigger'd Strobe _ IT WERKZ!.mkv 35.4 MB10/26/2017 11:08:13 PM6
20171028 - BOLTR - BOLTS! _ How much torque before break.mkv 131.0 MB10/28/2017 9:49:37 PM6
20171029 - Building the Torquestruct-O-Matic _ Workshop ASMR.mkv 49.6 MB10/31/2017 10:51:32 PM6
20171102 - Tensile Strength Tester _ Fabricobbling Fun.mkv 110.0 MB11/8/2018 10:42:16 PM6
20171104 - BOLTR - Induction Motors EXPLAINED! _ Power Factor and Failure Analysis.mkv 356.2 MB10/28/2018 12:06:50 AM6
20171104 - Oscilloscope Audio Display _ Lissajous XY Music.mkv 101.2 MB11/5/2017 10:03:55 PM6
20171105 - BOLTR - Kawasaki Motorcycle Starter.mkv 86.2 MB11/6/2017 11:02:11 PM6
20171106 - Qi Wireless Charging EXPLAINED! _ Electronics for the back of the class..mkv 81.6 MB11/7/2017 9:46:12 PM6
20171108 - BOLTR - Swiss Made Industrial Actuator _ BIG $$$$$.mkv 233.4 MB11/8/2017 1:00:57 PM6
20171110 - BOLTR - Harbor Freight Bauer vs. Hercules _ THERE WILL BE SMOKE!.mkv 599.7 MB12/18/2018 2:35:16 AM6
20171113 - BOLTR - Haldex Hydraulic Pump _ How to ID pump size.mkv 635.0 MB11/8/2017 12:49:27 AM6
20171116 - MAZAK MILL AUDIT l 9 wire dual voltage electric motor wiring.mkv 194.8 MB10/29/2018 11:17:24 PM6
20171118 - BOLTR - Hydraulic Steering _ Reading Fluid Schematics.mkv 300.8 MB11/13/2017 10:49:08 PM6
20171120 - Orbitrol Valve Details _ My Errors Rectumfried..mkv 275.3 MB11/16/2018 5:40:28 AM6
20171121 - BOLTR - Le Clapper.mkv 107.7 MB10/28/2018 6:48:43 PM6
20171122 - Pocket Hardness Tester PROTOTYPE _ IT WERKS!.mkv 119.4 MB11/22/2017 6:35:41 PM6
20171123 - CHICKADEE ENGINERDING! _ Father & Daughter time.mkv 106.3 MB11/1/2018 1:34:00 AM6
20171124 - BRILLIANT Japanese Invention! _ Everyday Carry Test.mkv 63.3 MB1/9/2018 12:43:48 AM7
20171125 - BOLTR - MILWAUKEE VACUUM _ It sucks..mkv 149.3 MB11/10/2018 1:45:43 PM6
20171126 - BOLTR - Dyson Animal _ Cordless Vacuum.mkv 340.8 MB10/11/2018 5:35:23 PM6
20171128 - Industrial Electronics Tune Up! _ Stay Frosty.mkv 183.2 MB11/12/2018 3:30:08 AM6
20171202 - BOLTR - Inverter EXPLAINED _ DuraPulse VFD.mkv 271.7 MB11/6/2018 11:48:07 PM6
20171203 - BOLTR - $25 Digital Indicator _ Aliexpress Chinesium Emporium.mkv 172.4 MB11/15/2018 12:48:33 AM6
20171207 - Belt Grinder OVERDRIVE! _ HOW.mkv 194.7 MB12/8/2017 6:06:54 AM7
20171209 - BIG COMPRESSOR PERFORMANCE BOOST _ No tripped breakers!.mkv 158.9 MB10/7/2018 12:39:05 AM6
20171212 - BOLTR - SUMITOMO CYCLO GEARBOX _ Zero Backlash!.mkv 176.4 MB10/26/2018 10:05:07 PM7
20171214 - BOLTR - Skillsaw 77 _ Made in USA vs. CHINA.mkv 682.7 MB12/21/2018 7:16:17 PM7
20171215 - BOLTR - CLOROX SCRUBTASTIC! _ More junk for the landfill..mkv 159.3 MB12/17/2017 4:10:52 AM7
20171217 - BOLTR - Lenze AC Tech Drive _ The VFD Channel.mkv 99.1 MB12/19/2017 12:30:38 AM7
20171219 - Quick test of best thermal compound application.mkv 24.3 MB12/19/2017 11:54:35 PM8
20171221 - SPEED DOESN'T MATTER! Auto-Darkening Welding Helmet.mkv 160.4 MB12/23/2017 12:51:46 AM7
20171222 - Auto-Darkening Filter in slow motion _ 2 milliseconds of weld arc.mkv 87.7 MB11/10/2018 4:22:52 PM7
20171223 - BOLTR - Vitamix Blender _ Test and Teardown review.mkv 221.4 MB12/23/2017 11:27:00 PM6
20171225 - 48 to 1 Cycloidal Torque Multiplier.mkv 162.6 MB12/27/2017 1:47:56 AM7
20171229 - Would I invest in Bitcoin _ Litecoin, XRP, Ether.mkv 112.4 MB12/30/2017 7:30:15 AM9
20180103 - BOLTR - Porter-Cable Sawsall _ ZOMBIE BRANDS.mkv 197.4 MB1/5/2018 3:29:17 AM8
20180110 - CASH on CASH _ Vinyl Records and Plastic Money.mkv 5.1 MB1/11/2018 11:56:04 PM10
20180112 - ARE CHEAP WELDING HELMETS SAFE _ Auto-darkening speed.mkv 163.1 MB11/7/2018 4:20:22 AM8
20180118 - DYSON ANIMAL BALLS _ It blows!.mkv 355.7 MB9/27/2018 11:43:22 PM7
20180120 - $250 vs $25 Auto Darkening Welding Helmet _ What's the difference.mkv 149.9 MB1/31/2018 10:10:12 AM8
20180125 - BOLTR - Parker Bent Axis Piston Motor _ Hydraulic Industrial Lego.mkv 209.8 MB1/25/2018 4:58:26 AM7
20180127 - BOLTR - PLC _ Steaming Turd Emojies.mkv 237.3 MB1/27/2018 2:44:14 PM7
20180128 - RETURN OF THE DEWCLAW! _ Monster Milling Machine.mkv 202.1 MB1/28/2018 4:55:46 PM9
20180201 - Mission Critical Equipment Repair _ Sandwich Maker.mkv 214.2 MB11/3/2018 7:41:08 PM8
20180207 - British Columbia's Most Dangerous Highway _ ROADTRIP!.mkv 376.7 MB11/8/2018 2:05:47 AM23
20180209 - Diesel Jeep! _ Frankenstein Volkswagen Engine.mkv 323.7 MB2/9/2018 7:29:58 AM11
20180210 - BOLTR - Dremel Saw Max _ MORE NOISE! MORE DUST!.mkv 357.5 MB9/28/2018 8:45:34 PM6
20180216 - BOLTR - Rexroth Hydraulic Valve _ How it's built and Troubleshooting.mkv 333.9 MB2/12/2018 10:03:31 PM8
20180220 - Tool that doesn't exist _ MAKE IT!.mkv 62.2 MB2/20/2018 9:20:56 PM8
20180222 - SPEEDY-n-EASY Bearing Removal _ Weld-it-out!.mkv 70.4 MB11/3/2018 7:16:45 PM7
20180223 - BOLTR - PENN FISHING REEL _ SQUALL DRAG REEL.mkv 207.1 MB11/10/2018 3:05:04 PM7
20180224 - BOLTR - Trochoid Pump _ Chickadee Enginerding!.mkv 125.7 MB2/24/2018 10:56:44 PM6
20180228 - BOLTR - Electric Knife Sharpener _ _Wife is NOT impressed!.mkv 263.8 MB10/22/2018 10:46:00 PM7
20180302 - Fun 'MACHINE NEEDLES' and 'BOLTS' _ Chickadee Enginerding!.mkv 175.8 MB11/2/2018 4:38:00 AM7
20180303 - SCRAP-BUILT BEAUTY! _ De-magnetizing tool.mkv 64.7 MB3/3/2018 10:36:05 AM6
20180306 - DON'T GET SOAKED IN DIESEL! _ BRILLIANT Hands-On Hack.mkv 55.7 MB3/6/2018 1:00:21 PM6
20180308 - Making WOOD GLASS _ Home Chemistry Experiment.mkv 391.5 MB2/27/2018 10:17:16 PM7
20180309 - BOLTR - Harbor Freight Impact _ MUCH BETTER QUALITY.mkv 235.8 MB3/16/2018 8:44:20 AM7
20180311 - BOLTR - INDUSTRIAL VIBRATOR _ No more Dry & Clumpy!.mkv 41.8 MB3/11/2018 10:45:54 PM7
20180313 - TWINS REUNITE! Harbor Freight & HAZET _ Taiwan M7 Tools.mkv 39.9 MB3/13/2018 9:36:40 PM10
20180315 - Simply Explained Bridge Collapse _ Engineering and Construction.mkv 272.8 MB3/16/2018 12:02:19 AM6
20180316 - Post Tension Failure Florida Bridge Collapse _ Engineering EXPLAINED!.mkv 385.9 MB3/16/2018 9:33:40 PM7
20180317 - BOLTR - Ego Blower _ Yes, it blows.mkv 435.6 MB12/21/2018 8:45:04 PM8
20180319 - BOLTR - Harbor Freight Digital Torque Adaptor _ Wheatstone Bridge Strain Gauge.mkv 159.7 MB11/2/2018 8:42:36 PM7
20180321 - Bolt Break-Away Torque _ Measuring tightening vs. loosening.mkv 105.7 MB11/12/2018 2:35:43 PM6
20180323 - BEST Oil for Rusty Bolts _ WD-40 vs. Secret Sauce.mkv 127.4 MB11/8/2018 6:03:55 PM7
20180326 - Audiofiles Hate This Guy! _ Styrofoam Speakers.mkv 94.7 MB11/10/2018 7:28:06 AM8
20180329 - Home Depot Bolt vs. USA Made _ Offshore Suprise!.mkv 136.9 MB11/7/2018 6:48:34 PM8
20180331 - BOLTR - Husky Stubby Impact _ Not bad.mkv 199.2 MB3/31/2018 11:19:16 AM6
20180403 - Busting Nuts, Exotic Screws _ Titanium, Inconel, Bronze.mkv 166.4 MB9/23/2018 10:27:18 PM7
20180404 - BOLTR - Smartbolts _ Tension Indicator Fastener.mkv 51.0 MB4/4/2018 10:59:14 AM7
20180406 - Penetrating Oil HYPE! _ Kroil, Seafoam, Liquid Wrench.mkv 247.0 MB9/24/2018 12:40:46 AM7
20180408 - BOLTR - Milwaukee Sodding Iron _ I'm 2 for 2!.mkv 260.7 MB3/31/2018 3:20:26 PM7
20180408 - BOSCH NANO-CHAINSAW _ 6 month review.mkv 61.2 MB4/8/2018 11:28:59 AM9
20180413 - Non-Contact Voltage Tester _ How does it work.mkv 145.3 MB4/13/2018 1:27:10 PM6
20180415 - BOLTR - Bosch Hot Glue Pen _ USB Lithium.mkv 158.4 MB4/15/2018 11:39:53 AM7
20180418 - PEW-PEW! Pneumatic Automation _ Industrial Lego.mkv 192.0 MB6/28/2018 6:46:28 AM7
20180420 - Nord-Lock Washers _ Do they work better.mkv 188.3 MB4/20/2018 11:24:49 PM7
20180421 - MIG WELDER MISTAKES _ Tricks and First Project.mkv 234.2 MB9/21/2018 9:35:10 PM7
20180425 - BOLTR - Fluke T6 Contactless Voltage Meter _ Non-Sense Field Sense.mkv 188.9 MB4/25/2018 11:01:51 PM6
20180426 - Fruke's JOY BUZZER™ Multimeter! _ SHOCKINGLY BAD T6.mkv 238.4 MB11/3/2018 11:57:08 AM6
20180428 - Transducers, Solenoids and Headaches _ Pneumatic Automation.mkv 274.2 MB10/30/2018 12:18:38 AM7
20180502 - BOLTR - Electro-Mechanical Instrumentation _ MADE IN CANADA.mkv 166.3 MB11/1/2018 4:03:18 PM7
20180503 - Current to Air Converter Errata _ Greybeards to the rescue!.mkv 86.6 MB5/3/2018 9:07:23 AM7
20180504 - BOLTR - Sonoff WIFI Switch _ CHEAP ain't so cheap after all!.mkv 157.8 MB10/26/2018 4:47:22 PM8
20180504 - May the Fourth be with you _ Allegorical Spitpost.mkv 14.9 MB12/14/2018 5:50:13 AM16
20180505 - Dirty Trick with Holesaws _ MIG Welding Fun!.mkv 106.9 MB5/5/2018 7:14:11 PM7
20180508 - New T-shirt, Old Rules..mkv 5.9 MB5/8/2018 7:33:25 PM13
20180509 - Pneumatic Cork-Stuffer _ PLC Programming Intro.mkv 203.3 MB5/7/2018 8:01:33 PM7
20180512 - BOLTR - Makita BLACK Drill _ Not the SIZE of the Axe, but how you swing it.mkv 239.1 MB9/20/2018 4:44:01 AM7
20180513 - How to get a summer job _ Jordan Peterson _ Fluke T6-600.mkv 416.5 MB5/9/2018 11:41:12 AM33
20180516 - Tesla Valve on Nordic Skis _ Springtime Fun!.mkv 85.6 MB5/16/2018 5:35:35 AM10
20180517 - BOLTR - Vulcan MIG 215 _ Harbor Freight Welder.mkv 313.9 MB10/30/2018 12:16:51 AM7
20180522 - BOLTR - Hazet blow bottle _ German Gadgets.mkv 131.5 MB6/28/2018 11:01:00 AM7
20180525 - Canadian Tradition May Two-Four! _ Hosers Holiday!.mkv 55.4 MB5/25/2018 2:27:07 AM13
20180527 - Ferrocell Pocket Sized _ Magnetic Flux Viewer.mkv 468.9 MB5/20/2018 4:51:49 AM7
20180602 - Vacuum Pump Hydraulics _ Cheap Hacks.mkv 91.7 MB5/26/2018 3:34:02 PM7
20180605 - BOLTR - Hydroshot _ Cordless Pressure Washer.mkv 318.7 MB9/26/2018 11:54:39 PM7
20180610 - Rigol DSO upgrade _ Less Talk - More Action!.mkv 116.9 MB6/10/2018 6:24:34 PM7
20180611 - Identify & Weld Mystery Metal _ Aluminum, Steel, Iron.mkv 103.3 MB6/11/2018 11:35:27 PM9
20180616 - BOLTR - Wax Actuated Motor _ Mindblowing OLD Tech.mkv 193.3 MB6/16/2018 10:05:59 AM7
20180621 - BOLTR - TS 100 Soldering Iron _ Quickie.mkv 72.6 MB6/13/2018 7:20:25 PM6
20180623 - BOLTR - Karcher Window Washer _ Home Cleaning Gadget.mkv 81.8 MB6/19/2018 12:49:40 PM8
20180627 - Diesel Engine Weirdness _ Sailor's Delight.mkv 87.2 MB11/15/2018 2:00:57 AM10
20180629 - BOLTR - DeWALT Chainsaw _ Engineering FAIL.mkv 376.9 MB7/29/2018 2:26:17 PM7
20180703 - BOLTR - Renishaw CNC Probe _ Why so much $$$!.mkv 234.7 MB6/30/2018 10:53:10 AM9
20180707 - BOLTR; Harbor Freight Fork Meter _ Shockingly Accurate!.mkv 261.7 MB7/6/2018 2:00:01 AM7
20180710 - BOLTR - Milwaukee Hole Hawg _ Long Term Quality.mkv 634.0 MB10/27/2018 9:01:25 PM7
20180714 - Hangover Cure Breakfast _ World's Skookumest BBQ Griddle.mkv 156.5 MB10/26/2018 10:23:46 PM8
20180714 - SO SATISFACTING! BIG BOY CHIPS on the Mazak.mkv 9.6 MB7/7/2018 2:59:42 PM17
20180717 - Best Corrosion Protection _ Denso Tape.mkv 75.9 MB7/14/2018 4:17:01 PM7
20180719 - Manly-Man Skills _ Electrical Diagnostics.mkv 25.6 MB11/10/2018 2:17:17 PM13
20180721 - From Dirt to Silver _ Galena Rocks in British Columbia.mkv 177.8 MB7/16/2018 2:28:28 PM8
20180724 - BOLTR - Turbine Vibrator _ DIY Vibratory Cleaning.mkv 292.0 MB10/8/2018 8:53:12 PM7
20180727 - BOLTR - Modutrol Motor _ Industrial Oddware.mkv 309.4 MB7/27/2018 4:18:43 PM7
20180729 - BOLTR - Arc Lighter _ Zzzzzap Gadget.mkv 137.7 MB7/24/2018 9:35:13 PM9
20180801 - BOLTR - Anatomy of a FAIL. _ Makita not you too!.mkv 150.4 MB8/1/2018 9:44:05 PM7
20180803 - Bartending Robot _ Hydraulic Proportional Valve.mkv 175.2 MB8/3/2018 12:29:58 PM7
20180804 - BOLTR - Milwaukee Pump _ Box Specs vs. Shop Specs.mkv 488.0 MB9/22/2018 9:28:18 PM7
20180806 - Hydraulic Bartending Robot 02. Quick and Dirty Fabricobling.mkv 229.0 MB8/9/2018 1:53:46 AM7
20180808 - BOLTR - Blasting Machine _ Cool Old Gear.mkv 144.8 MB7/31/2018 8:53:06 PM7
20180810 - BOLTR - Bosch Drum Sander _ Undercarriage Abrasion.mkv 321.0 MB9/13/2018 9:59:24 PM7
20180814 - Genoa Bridge Collapse Explained _ WHY and HOW.mkv 100.0 MB8/14/2018 11:04:30 PM7
20180817 - Powerful Electric Troubleshooting _ Voltage Drop Test.mkv 218.6 MB8/14/2018 6:01:04 PM7
20180818 - Manly-Man Skills _ Whitening Old Plastic.mkv 36.0 MB10/9/2018 3:02:24 PM7
20180821 - Friggin' in the Riggin' _ Brake Problem Fork U!.mkv 73.2 MB8/17/2018 6:11:16 PM6
20180824 - BOLTR - Hand Tool Rescue Wrench _ Torture Test.mkv 292.7 MB9/22/2018 11:36:10 PM6
20180826 - Problem Solved! _ Forky McForkface.mkv 63.9 MB8/23/2018 12:21:49 AM6
20180831 - BOLTR - Instant Pot _ Legal in Canada!.mkv 222.3 MB9/28/2018 9:29:41 PM7
20180904 - Technological Performance Boost _ Church Key.mkv 172.1 MB11/13/2018 8:20:32 PM7
20180906 - BOLTR - Milwaukee Chainsaw _ Destroys DeWalt.mkv 1.0 GB1/10/2019 3:45:34 PM8
20180912 - Ghost Bug Experiment _ Chickadee Engineering.mkv 217.1 MB9/6/2018 7:11:26 PM7
20180914 - 49 second idea _ Magnetic Camera Mount.mkv 29.5 MB9/14/2018 10:04:50 AM6
20180916 - Power of the Learning Curve _ Mountain Biking Example.mkv 627.1 MB9/11/2018 12:51:22 AM11
20180919 - BOLTR - Worx Jaw Saw _ Engineering Fail.mkv 1017.2 MB10/21/2018 10:43:25 PM7
20180923 - Double Miter Joint _ Dumb Welding Trick.mkv 71.9 MB9/23/2018 10:54:46 PM6
20180927 - Basic Electrical Troubleshooting _ Battery Maintenance.mkv 543.9 MB9/19/2018 10:40:26 PM6
20180928 - Fat Tire Honda 50 _ Every Kid's Favorite (Mom's too!).mkv 63.3 MB9/29/2018 2:16:34 AM9
20181001 - Beginner MIG Welding Project _ Vertical Plate Rack.mkv 106.5 MB10/1/2018 8:57:14 AM8
20181004 - MIG, TIG or Stick _ Weekend-Welder Double Mitre.mkv 304.7 MB10/21/2018 5:25:02 AM7
20181008 - Terrible Tools _ Speed Rant.mkv 157.8 MB9/28/2018 11:58:16 PM7
20181011 - BOLTR - 2000W 'Digital' Inverter _ Pure Sine Wave.mkv 403.7 MB10/4/2018 10:59:43 PM6
20181014 - Knockout Punch _ Tight Access.mkv 197.9 MB10/10/2018 2:11:33 AM6
20181018 - Hole Saw Trick _ getcha out of a jam!.mkv 133.2 MB10/14/2018 4:07:35 PM6
20181020 - BOLTR - Japanese Linear Compressor _ Genius!.mkv 360.8 MB10/15/2018 11:16:33 PM6
20181023 - BOLTR - Samlex inverter _ Cheap vs. Expensive.mkv 697.7 MB10/16/2018 11:20:52 PM6
20181025 - 5 Axis CNC _ First Chips.mkv 57.8 MB10/25/2018 2:58:46 PM7
20181026 - One Million Subscribers _ Town Pump CNC.mkv 86.6 MB10/22/2018 11:48:50 PM6
20181029 - Pain in the HAAS _ Fantom Faults.mkv 134.2 MB10/23/2018 2:02:42 AM6
20181101 - BOLTR - Diaphragm Pump _ So tough it'll pump ball bearings.mkv 512.5 MB10/25/2018 3:20:52 PM6
20181102 - Empire of Dirt.mkv 46.9 MB11/2/2018 2:26:36 PM13
20181103 - HAAS Shakedown _ JUNK Visual Programming System.mkv 136.7 MB10/29/2018 7:12:49 PM6
20181105 - HAAS 15k Spindle _ Engraving Test.mkv 40.5 MB10/31/2018 8:39:30 PM6
20181108 - Cam Girl does Goat _ Remote CNC Proof of Concept.mkv 113.4 MB11/1/2018 1:41:36 PM7
20181114 - BOLTR - Makita Mitre Saw _ Aluminum Cuts.mkv 529.7 MB11/7/2018 11:00:19 PM6
20181115 - NERDGASM - Aluminum _ Shop Talk.mkv 376.6 MB11/8/2018 1:50:09 AM6
20181117 - Beginner CNC Programming _ G-Code.mkv 294.9 MB11/15/2018 1:41:27 PM6
20181120 - Symphony of Chips _ Crowdsourced CNC.mkv 244.3 MB11/15/2018 10:07:55 PM7
20181121 - Climbing the Learning Curve _ one mistake at a time.mkv 165.5 MB11/15/2018 11:40:18 PM9
20181123 - BOLTR - Ridgid Palm Impact _ Good Idea Bad Implementation.mkv 596.7 MB11/21/2018 5:22:28 AM6
20181126 - Comfort on Cold Winter Nights _ Quick Project.mkv 44.8 MB11/20/2018 6:54:04 PM6
20181127 - Chair Lift Disasters _ 'Tis the Season!.mkv 337.3 MB11/27/2018 4:02:31 PM11
20181129 - BOLTR - Needle Scaler _ Harbor Freight Cheap-O.mkv 195.8 MB11/21/2018 3:18:28 PM6
20181201 - Bumbleforks _ Holiday Survival Guide.mkv 141.1 MB11/27/2018 9:08:33 PM8
20181203 - Accusize Tools = NFG _ Amazon Fails.mkv 47.8 MB11/28/2018 4:43:37 PM7
20181206 - BOLTR - Design Fails Corrected! _ Ridgid Palm Impact.mkv 362.0 MB11/28/2018 2:11:18 PM6
20181209 - Red Squirrel Yakisoba _ Bumblefork Grill.mkv 128.1 MB12/5/2018 10:48:00 AM6
20181210 - BOLTR - Haas _ Intro to CNC mini-series Ep. 1.mkv 502.5 MB12/10/2018 7:25:48 PM6
20181213 - BOLTR - Hilti Compact Band Saw _ Quality Problems.mkv 458.0 MB12/7/2018 1:32:17 AM6
20181215 - Snow Season Spitpost _ Shot-Ski.mkv 20.3 MB12/15/2018 6:41:36 PM9
20181218 - Return of Dewclaw! _ Battery Air Compressor.mkv 276.5 MB12/12/2018 9:30:44 PM6
20181220 - Fried Rice on the BBQ _ Bumblefork Griddle.mkv 256.3 MB12/13/2018 1:17:48 AM6
20181222 - Old School G-Code worth the HAASsle _ Intro to CNC mini-series Ep. 2.mkv 446.4 MB12/17/2018 8:35:53 AM6
20181223 - Santa's Chainsaw Robot _ Holiday Debox Therapy.mkv 95.1 MB12/20/2018 3:04:47 PM7
20181228 - Latching Relay _ Electronics quick and dirty.mkv 178.6 MB12/19/2018 10:02:06 PM6
20190110 - BOLTR - KitchenAid Food Processor _ Expensive Junk.mkv 366.9 MB1/6/2019 9:01:37 PM6
20190112 - Tormach, Haas, Fadal, Mazak, Hurco _ Viewer Questions.mkv 254.7 MB1/8/2019 8:20:47 AM6
20190114 - What's WRONG _ Fluke Clamp-On.mkv 244.0 MB1/14/2019 7:46:22 PM6
20190117 - Recover Lead Acid Batteries _ Desulfate using Epsom Salts.mkv 562.9 MB1/8/2019 8:47:13 PM6
20190118 - BOLTR - Solar (brand) Charger _ Get what you pay for. Sometimes..mkv 414.4 MB1/10/2019 6:11:49 PM6
20190122 - DOLTR - Toughest Cheap Drill at Harbor Freight _ FREE Flashlight!.mkv 292.3 MB1/15/2019 5:14:53 PM7
20190124 - What else will it do _ Magnet, Metal & Machine.mkv 174.4 MB1/16/2019 12:09:06 PM6
20190126 - Small Victories! _ BS'ing.mkv 202.9 MB1/18/2019 6:44:22 PM6
20190127 - BOLTR - Sprag Clutch _ Engineered Bearings.mkv 203.9 MB1/18/2019 12:56:12 AM6
20190131 - BOLTR - Amazon Height Gauge _ Cheap Yes. Ok Maybe.mkv 483.7 MB1/18/2019 1:14:40 AM5
20190202 - New Tool Day!.mkv 134.5 MB1/29/2019 4:01:43 PM6
20190205 - BOLTR - DEWALT Carbide _ Knife Blades.mkv 162.9 MB1/31/2019 2:01:33 AM5
20190207 - BOLTR - Hydraulic Vane Pump _ Engineering Lego.mkv 670.7 MB1/30/2019 8:39:21 PM3
20190210 - Crispy Pork Belly BBQ _ Papa's night to cook.mkv 186.7 MB2/6/2019 3:06:41 PM3
20190212 - ROBOTS are NOT going to steal your job _ Ram Air Intake.mkv 193.3 MB2/12/2019 1:01:09 PM2
20190213 - Cold Comfort _ Mental Toughness.mkv 187.1 MB2/6/2019 5:07:24 PM4
20190215 - Spinning Viewport _ Dewclaw helps out.mkv 79.9 MB2/6/2019 6:49:24 PM3
20190218 - Biking in the Snow _ Fatbike Trial.mkv 47.4 MB2/11/2019 1:47:18 PM2
20190219 - Red Balls Snowboarding _ 2019 Vans Warped by old dudes.mkv 152.0 MB2/11/2019 6:11:04 PM2
20190221 - BOLTR - Stubby Sawzall _ Makita Compact Saw.mkv 635.7 MB2/14/2019 4:19:17 PM2
20190224 - Stoemp and Filet _ Bumbleforks Griddle.mkv 287.5 MB2/19/2019 3:28:07 PM2
20190226 - Inventing Tools _ Prototype and Test.mkv 207.2 MB2/18/2019 9:52:01 PM3
20190302 - BOLTR - Milwaukee Hacksawzall _ Seven Year Review.mkv 362.4 MB2/20/2019 3:48:58 PM2
20190308 - BOLTR - Milwaukee Fuel Hacksawzall _ Brushless vs. Brushed.mkv 429.6 MB3/4/2019 12:22:41 AM1
20190311 - BOLTR - Twin Crown Gear _ Milwaukee Hacksawzall.mkv 170.7 MB3/4/2019 9:30:52 PM2
20190311 - WARNING! Safety Non-Compliance Stickers.mkv 89.0 MB3/11/2019 5:31:14 PM2
20190312 - Why are Boeing 737s CRASHING _ In layman's terms.mkv 605.3 MB3/13/2019 12:56:45 AM2
20190314 - Babydoll's First Time! _ Grinding up the Learning Curve.mkv 108.6 MB3/4/2019 5:57:19 PM2
20190317 - Copper scares me _ 1st CNC attempt.mkv 282.9 MB3/8/2019 8:07:22 PM2
20190319 - Glorious Fixing of Things _ Amazing Gewgaws Repaired!.mkv 123.5 MB3/11/2019 7:41:23 PM3
20190319 - Hydraulically Testing Pull-Out Force _ Strongest Vise Jaw.mkv 346.0 MB3/11/2019 7:03:05 PM2
20190323 - Soft Lead Hard Grip _ Testing Lead Vise Jaws.mkv 101.3 MB3/12/2019 12:05:27 PM1
20190326 - Useful Invention _ Geodesic Dome Joinery.mkv 239.1 MB3/26/2019 7:34:42 PM1
20190329 - Bumbleforks Bacon Okonomiyaki _ BBQ Japanese Pancake.mkv 182.8 MB3/24/2019 8:59:41 PM1
20190331 - Testing Radiation from Tungsten, Japanese Steel _ Welding Metals Tested.mkv 287.1 MB3/27/2019 5:51:18 PM1
20190403 - Nice Rack! _ Can't find a bike bunker Build it..mkv 267.9 MB3/29/2019 5:23:28 PM1
20190406 - SKS Russia vs. China _ Vancouver wrong side of the tracks.mkv 294.0 MB4/1/2019 8:50:05 PM1
20190409 - BOLTR - GARBAGE EGO Blower _ 13 Month Review.mkv 175.5 MB4/2/2019 8:29:44 PM1
20190410 - Resurrection - HILTI Grinder _ Sore Dick Deal.mkv 247.0 MB4/3/2019 12:56:58 AM1
20190414 - Making a Copper Swing Press _ An Essential gift for Craftsmen.mkv 294.0 MB4/7/2019 5:08:36 PM1
20190418 - Making Copper Signs _ Sheet Metal Experiment.mkv 250.4 MB4/11/2019 11:27:42 AM2
Cleanup.bat 205B10/24/2018 8:30:02 AM42